HAWK-B (43794 NORAD) Tracking and Keplerian Element Data

This shows tracking and keplerian element data for the satellite.

Feedback or suggestion? Click here.




ElementValue
Catalog43794
NameHAWK-B
Epoch Orbit715
Epoch Day20.71932459
Epoch Year2019
RAAN94.4403
Inclination97.76
Eccentricity0.0013356
Argument of Perigee109.6315
Mean Anonmoly250.6349
Mean Motion14.96534092
Decay Rate-2.1E-06
L11 43794U 18099AN 19020.71932459 -.00000210 00000-0 -13290-4 0 9990
L22 43794 97.7600 94.4403 0013356 109.6315 250.6349 14.96534092 7150

Live tracking and technical data element details for HAWK-B (NORAD 43794). HAWK-B can be tracked NOW for your location showing map with azimuth and elevation plus other details from your city location.

Track the satellite on the map from your city or location and see movement details for azimuth, elevation, latitude, longitude, range, height, and movement on the map or in text.







IsCatalogInMostPopularTable: catalog: 43794, numindb: 23
Update: records affected: 1



GetName: 43794 HAWK-B

Hit Count: updated at: Wed, 23 Jan 2019 02:41:25 GMT